Meteo Giornale » Osservazioni meteo Francia » Melun

ore: 20:30 - Osservazioni Meteo Melun
Lat. 48° 37' N Lon. 2° 41' E Alt. 95 metri s.l.m.

sereno Europe/Paris

21 °C

Sereno

Temp. 24 Ore

11 °C

28 °C

Nord/Nord-Est

7.4 Km/h

Dew point 9 °C

Umidità 46 %

Visibilità  10 Km

Il sole sorge alle ore 07:24

Il sole tramonta alle ore 20:04

Data e Ora Cielo e Fenomeni T °C DP °C Um. % Pres. hPa Vis. km Vento km/h
Oggi h: 20:30 sereno Sereno 21 9 46 1022 10 N/NE 7.4
Oggi h: 20:00 sereno Sereno 23 9 40 1022 10 N 7.4
Oggi h: 19:30 sereno Sereno 24 9 38 1022 10 N 7.4
Oggi h: 19:00 sereno Sereno 25 9 36 1021 10 N 9.3
Oggi h: 18:30 sereno Sereno 26 9 34 1022 10 N 7.4
Oggi h: 18:00 sereno Sereno 26 9 34 1022 10 N 5.5
Oggi h: 17:30 sereno Sereno 26 9 34 1022 10 N/NO 11.1
Oggi h: 17:00 sereno Sereno 27 9 32 1022 10 N/NO 11.1
Oggi h: 16:30 sereno Sereno 27 9 32 1022 10 N/NO 9.3
Oggi h: 16:00 sereno Sereno 28 9 30 1023 10 N 11.1
Oggi h: 15:30 sereno Sereno 27 10 34 1023 10 N 5.5
Oggi h: 15:00 sereno Sereno 27 11 36 1023 10 N 5.5
Oggi h: 14:30 sereno Sereno 27 11 36 1024 10 N 9.3
Oggi h: 14:00 sereno Sereno 27 13 42 1024 10 NO 9.3
Oggi h: 13:30 sereno Sereno 26 13 44 1024 10 N 5.5
Oggi h: 13:00 sereno Sereno 26 12 41 1025 10 N 5.5
Oggi h: 12:30 sereno Sereno 25 12 44 1025 10 N 5.5
Oggi h: 12:00 sereno Sereno 24 12 47 1025 10 N 11.1
Oggi h: 11:30 sereno Sereno 23 11 46 1025 10 N 11.1
Oggi h: 11:00 sereno Sereno 22 12 53 1025 10 N 5.5
Oggi h: 10:30 sereno Sereno 20 12 59 1025 10 N 3.7
Oggi h: 10:00 sereno Sereno 18 12 67 1025 10 N 1.8
Oggi h: 09:30 sereno Sereno 16 12 77 1025 10 N 3.7
Oggi h: 09:00 sereno Sereno 15 11 76 1025 10 N 3.7
Oggi h: 08:30 sereno Sereno 13 11 87 1025 10 N 7.4
Oggi h: 08:00 sereno Sereno 12 10 87 1025 10 N/NO 7.4
Oggi h: 07:30 sereno Sereno 12 10 87 1025 10 N 5.5
Oggi h: 07:00 sereno Sereno 12 10 87 1025 10 N/NO 9.3
Oggi h: 06:00 sereno Sereno 11 9 87 1025 10 N 0
Oggi h: 05:30 sereno Sereno 12 9 81 1025 10 N 1.8
Oggi h: 05:00 sereno Sereno 13 10 81 1025 10 N 3.7
Oggi h: 04:30 sereno Sereno 13 10 81 1025 10 N/NO 7.4
Oggi h: 04:00 sereno Sereno 13 10 81 1025 10 N 3.7
Oggi h: 03:30 sereno Sereno 13 11 87 1025 10 N 3.7
Oggi h: 03:00 sereno Sereno 13 10 81 1025 10 N 0
Oggi h: 02:30 sereno Sereno 13 10 81 1026 10 N 0
Oggi h: 02:00 sereno Sereno 15 10 72 1026 10 N 3.7
Oggi h: 01:30 sereno Sereno 15 11 76 1026 10 N 7.4
Oggi h: 01:00 sereno Sereno 15 11 76 1026 10 N 5.5
Oggi h: 00:30 sereno Sereno 15 11 76 1026 10 N 5.5
Oggi h: 00:00 sereno Sereno 16 11 72 1026 10 N 5.5
Ieri h: 23:30 sereno Sereno 17 11 67 1026 10 N 3.7
Ieri h: 23:00 sereno Sereno 17 11 67 1026 10 N 9.3
Ieri h: 22:30 sereno Sereno 18 12 67 1027 10 N 9.3
Ieri h: 22:00 sereno Sereno 19 11 59 1027 10 N 5.5
Ieri h: 21:30 sereno Sereno 19 11 59 1027 10 N 9.3
Ieri h: 21:00 sereno Sereno 20 11 56 1027 10 N 7.4